Year,Month,Day,Hour,Minute,Value (Times are PST for temperature in C)
2018,09,21,14,29,14.00
2018,09,21,14,30,14.00
2018,09,21,14,31,14.00
2018,09,21,14,32,14.00
2018,09,21,14,33,13.90
2018,09,21,14,34,13.90
2018,09,21,14,35,13.80
2018,09,21,14,36,13.80
2018,09,21,14,37,13.70
2018,09,21,14,38,13.70
2018,09,21,14,39,13.70
2018,09,21,14,40,13.70
2018,09,21,14,41,13.70
2018,09,21,14,42,13.70
2018,09,21,14,43,13.60
2018,09,21,14,44,13.60
2018,09,21,14,45,13.50
2018,09,21,14,46,13.50
2018,09,21,14,47,13.50
2018,09,21,14,48,13.50
2018,09,21,14,49,13.50
2018,09,21,14,50,13.50
2018,09,21,14,51,13.60
2018,09,21,14,52,13.60
2018,09,21,14,53,13.60
2018,09,21,14,54,13.70
2018,09,21,14,55,13.70
2018,09,21,14,56,13.70
2018,09,21,14,57,13.70
2018,09,21,14,58,13.80
2018,09,21,14,59,13.80
2018,09,21,15,00,13.90
2018,09,21,15,01,13.90
2018,09,21,15,02,13.90
2018,09,21,15,03,14.00
2018,09,21,15,04,14.00
2018,09,21,15,05,14.00
2018,09,21,15,07,14.10
2018,09,21,15,08,14.10
2018,09,21,15,09,14.10
2018,09,21,15,29,14.80
2018,09,21,15,30,14.80
2018,09,21,15,31,14.80
2018,09,21,15,32,14.80
2018,09,21,15,33,14.80
2018,09,21,15,34,14.80
2018,09,21,15,35,14.80
2018,09,21,15,36,14.80
2018,09,21,15,37,14.90
2018,09,21,15,38,14.90
2018,09,21,15,39,14.90
2018,09,21,15,40,15.00
2018,09,21,15,41,15.00
2018,09,21,15,42,15.10
2018,09,21,15,43,15.10
2018,09,21,15,44,15.10
2018,09,21,15,45,15.20
2018,09,21,15,46,15.20
2018,09,21,15,47,15.20
2018,09,21,15,48,15.20
2018,09,21,15,49,15.20
2018,09,21,15,50,15.20
2018,09,21,15,51,15.20
2018,09,21,15,52,15.20
2018,09,21,15,53,15.20
2018,09,21,15,54,15.20
2018,09,21,15,55,15.20
2018,09,21,15,56,15.20
2018,09,21,15,57,15.20
2018,09,21,15,58,15.20
2018,09,21,15,59,15.10
2018,09,21,16,01,15.10
2018,09,21,16,29,15.30
2018,09,21,16,30,15.30
2018,09,21,16,31,15.30
2018,09,21,16,32,15.30
2018,09,21,16,33,15.40
2018,09,21,16,34,15.50
2018,09,21,16,35,15.50
2018,09,21,16,36,15.60
2018,09,21,16,37,15.60
2018,09,21,16,38,15.70
2018,09,21,16,39,15.70
2018,09,21,16,40,15.70
2018,09,21,16,41,15.80
2018,09,21,16,42,15.80
2018,09,21,16,43,15.80
2018,09,21,16,44,15.70
2018,09,21,16,45,15.70
2018,09,21,16,46,15.70
2018,09,21,16,47,15.70
2018,09,21,16,48,15.70
2018,09,21,16,49,15.70
2018,09,21,16,50,15.70
2018,09,21,16,51,15.70
2018,09,21,16,52,15.70
2018,09,21,16,53,15.70
2018,09,21,16,54,15.70
2018,09,21,16,55,15.70
2018,09,21,16,56,15.80
2018,09,21,16,58,15.80
2018,09,21,17,29,15.40
2018,09,21,17,30,15.40
2018,09,21,17,31,15.40
2018,09,21,17,32,15.40
2018,09,21,17,33,15.40
2018,09,21,17,34,15.40
2018,09,21,17,35,15.40
2018,09,21,17,36,15.40
2018,09,21,17,37,15.40
2018,09,21,17,38,15.50
2018,09,21,17,39,15.50
2018,09,21,17,40,15.50
2018,09,21,17,41,15.50
2018,09,21,17,42,15.50
2018,09,21,17,43,15.50
2018,09,21,17,44,15.50
2018,09,21,17,45,15.50
2018,09,21,17,46,15.50
2018,09,21,17,47,15.50
2018,09,21,17,48,15.40
2018,09,21,17,49,15.40
2018,09,21,17,50,15.40
2018,09,21,17,51,15.40
2018,09,21,17,52,15.40
2018,09,21,17,53,15.40
2018,09,21,17,54,15.30
2018,09,21,17,55,15.30
2018,09,21,17,56,15.30
2018,09,21,17,57,15.30
2018,09,21,17,58,15.30
2018,09,21,17,59,15.30
2018,09,21,18,00,15.30
2018,09,21,18,02,15.30
2018,09,21,18,03,15.30
2018,09,21,18,04,15.30
2018,09,21,18,29,14.40
2018,09,21,18,30,14.40
2018,09,21,19,29,14.20
2018,09,21,19,30,14.10
2018,09,21,19,31,14.10
2018,09,21,19,32,14.10
2018,09,21,19,33,14.10
2018,09,21,19,34,14.10
2018,09,21,19,35,14.10
2018,09,21,19,36,14.10
2018,09,21,19,37,14.10
2018,09,21,19,38,14.10
2018,09,21,19,39,14.10
2018,09,21,19,40,14.10
2018,09,21,19,41,14.10
2018,09,21,19,42,14.10
2018,09,21,19,43,14.10
2018,09,21,19,44,14.10
2018,09,21,19,45,14.10
2018,09,21,19,46,14.10
2018,09,21,19,47,14.10
2018,09,21,19,48,14.10
2018,09,21,19,49,14.20
2018,09,21,19,50,14.20
2018,09,21,19,51,14.20
2018,09,21,19,52,14.20
2018,09,21,19,53,14.20
2018,09,21,19,54,14.20
2018,09,21,19,55,14.20
2018,09,21,19,56,14.20
2018,09,21,19,57,14.30
2018,09,21,19,59,14.30
2018,09,21,20,29,13.90
2018,09,21,20,30,13.90
2018,09,21,20,31,13.90
2018,09,21,20,32,13.90
2018,09,21,20,33,14.00
2018,09,21,20,34,14.00
2018,09,21,20,35,14.00
2018,09,21,20,36,14.00
2018,09,21,20,37,14.00
2018,09,21,20,38,14.10
2018,09,21,20,39,14.00
2018,09,21,20,40,14.00
2018,09,21,20,41,14.00
2018,09,21,20,42,14.00
2018,09,21,20,43,14.00
2018,09,21,20,44,13.90
2018,09,21,20,45,13.90
2018,09,21,20,46,13.90
2018,09,21,20,47,13.80
2018,09,21,20,48,13.80
2018,09,21,20,49,13.80
2018,09,21,20,50,13.80
2018,09,21,20,51,13.80
2018,09,21,20,52,13.70
2018,09,21,20,53,13.70
2018,09,21,20,54,13.70
2018,09,21,20,55,13.70
2018,09,21,20,56,13.70
2018,09,21,20,57,13.70
2018,09,21,20,58,13.70
2018,09,21,20,59,13.70
2018,09,21,21,00,13.70
2018,09,21,21,01,13.70
2018,09,21,21,02,13.70
2018,09,21,21,03,13.70
2018,09,21,21,04,13.70
2018,09,21,21,05,13.80
2018,09,21,21,07,13.80
2018,09,21,21,08,13.80
2018,09,21,21,09,13.80
2018,09,21,21,29,14.20
2018,09,21,21,30,14.20
2018,09,21,21,31,14.20
2018,09,21,21,32,14.20
2018,09,21,21,33,14.20
2018,09,21,21,34,14.10
2018,09,21,21,35,14.10
2018,09,21,21,36,14.10
2018,09,21,21,37,14.10
2018,09,21,21,38,14.10
2018,09,21,21,39,14.00
2018,09,21,21,40,14.00
2018,09,21,21,41,14.00
2018,09,21,21,42,14.00
2018,09,21,21,43,14.00
2018,09,21,21,44,14.00
2018,09,21,21,45,14.00
2018,09,21,21,46,14.00
2018,09,21,21,47,14.00
2018,09,21,21,48,14.10
2018,09,21,21,49,14.10
2018,09,21,21,50,14.10
2018,09,21,21,51,14.10
2018,09,21,21,52,14.10
2018,09,21,21,53,14.10
2018,09,21,21,54,14.10
2018,09,21,21,55,14.10
2018,09,21,21,56,14.10
2018,09,21,21,57,14.10
2018,09,21,21,58,14.10
2018,09,21,21,59,14.10
2018,09,21,22,00,14.00
2018,09,21,22,01,14.00
2018,09,21,22,03,14.00
2018,09,21,22,29,13.60
2018,09,21,22,30,13.50
2018,09,21,22,31,13.40
2018,09,21,22,32,13.30
2018,09,21,22,33,13.30
2018,09,21,22,34,13.30
2018,09,21,22,35,13.30
2018,09,21,22,36,13.30
2018,09,21,22,37,13.30
2018,09,21,22,38,13.20
2018,09,21,22,39,13.20
2018,09,21,22,40,13.20
2018,09,21,22,41,13.20
2018,09,21,22,42,13.20
2018,09,21,22,43,13.20
2018,09,21,22,44,13.20
2018,09,21,22,45,13.20
2018,09,21,22,46,13.20
2018,09,21,22,47,13.20
2018,09,21,22,48,13.20
2018,09,21,22,49,13.20
2018,09,21,22,50,13.20
2018,09,21,22,51,13.10
2018,09,21,22,52,13.10
2018,09,21,22,53,13.10
2018,09,21,22,54,13.10
2018,09,21,22,55,13.10
2018,09,21,22,56,13.10
2018,09,21,22,57,13.10
2018,09,21,22,58,13.00
2018,09,21,22,59,13.00
2018,09,21,23,00,13.00
2018,09,21,23,01,13.00
2018,09,21,23,02,13.00
2018,09,21,23,03,12.90
2018,09,21,23,04,12.90
2018,09,21,23,05,12.90
2018,09,21,23,06,12.90
2018,09,21,23,08,12.90
2018,09,21,23,09,12.90
2018,09,21,23,29,12.70
2018,09,21,23,30,12.70
2018,09,21,23,31,12.70
2018,09,21,23,32,12.70
2018,09,21,23,33,12.70
2018,09,21,23,34,12.70
2018,09,21,23,35,12.60
2018,09,21,23,36,12.60
2018,09,21,23,37,12.60
2018,09,21,23,38,12.60
2018,09,21,23,39,12.60
2018,09,21,23,40,12.60
2018,09,21,23,41,12.60
2018,09,21,23,42,12.60
2018,09,21,23,43,12.60
2018,09,21,23,44,12.60
2018,09,21,23,45,12.60
2018,09,21,23,46,12.60
2018,09,21,23,47,12.60
2018,09,21,23,48,12.60
2018,09,21,23,49,12.70
2018,09,21,23,50,12.70
2018,09,21,23,51,12.70
2018,09,21,23,52,12.70
2018,09,21,23,53,12.70
2018,09,21,23,54,12.70
2018,09,21,23,55,12.70
2018,09,21,23,56,12.70
2018,09,21,23,57,12.80
2018,09,21,23,58,12.80
2018,09,21,23,59,12.80
